Tracking 18186 objects as of 29-March-2017
HD Live streaming from Space Station
objects crossing your sky now

OPS 9433 (DSCS 2-3)

Track OPS 9433 (DSCS 2-3) now!
OPS 9433 (DSCS 2-3) is classified as:


NORAD ID: 6973
Int'l Code: 1973-100A
Perigee: 36,419.4 km
Apogee: 36,666.9 km
Inclination: 12.9 °
Period: 1,474.6 minutes
Semi major axis: 42914 km
RCS: 5.3322 m2 (large)
Launch date: December 13, 1973
Source: United States (US)
Launch site: AIR FORCE EASTERN TEST RANGE (AFETR)
Your satellite tracking list
Your tracking list is empty





NASA's NSSDC Master Catalog

Two Line Element Set (TLE):
1  6973U 73100A   17087.39538080 -.00000182 +00000-0 +00000-0 0  9997
2  6973 012.9308 317.8904 0028837 141.7108 042.2352 00.97656740086941
Source of the keplerian elements: AFSPC